Location: Kelowna
(49.8880°N, 119.4960°W)
Time: 21:09:46
(UTC-07:00)

AO-27 - Pass Details

Date: 12 August 2024
Orbit: 783 x 796 km, 98.8° (Epoch: 19 September)

Event Time Altitude Azimuth Distance (km) Brightness Sun altitude
Exits shadow 21:45:02 - 177° (S) 2,747 10.1 -12.3°
Reaches altitude 10° 21:46:02 10° 180° (S) 2,356 9.7 -12.5°
Maximum altitude 21:51:09 57° 259° (WSW) 932 8.2 -13.1°
Drops below altitude 10° 21:56:20 10° 338° (NNW) 2,378 11.2 -13.7°
Sets 21:58:43 0° 342° (NNW) 3,313 12.0 -14.0°
